Weather History for Pensacola, FL

Change the Weather History Date:

Friday, June 14, 2013

  Actual Average Record
Temperature  
Mean Temperature 87 °F 80 °F  
Max Temperature 94 °F 89 °F 99 °F (1952)
Min Temperature 79 °F 73 °F 57 °F (1995)
Cooling Degree Days 22 15  
Month to date cooling degree days 226 202  
Year to date cooling degree days 668 650  
Since 1 June cooling degree days 226 202  
Growing Degree Days 36 (Base 50)    
Moisture  
Dew Point 72 °F    
Average Humidity 65    
Maximum Humidity 85    
Minimum Humidity 44    
Precipitation  
Precipitation 0.00 in 0.22 in 3.09 in (2004)
Month to date precipitation 4.85 2.72  
Year to date precipitation 26.89 26.72  
Sea Level Pressure  
Sea Level Pressure 29.89 in    
Wind  
Wind Speed 8 mph (NNW)    
Max Wind Speed 20 mph    
Max Gust Speed 25 mph    
Visibility 10 miles    
Events      
T = Trace of Precipitation, MM = Missing Value Source: NWS Daily Summary

Daily Weather History Graph

Daily Weather History Graph

Search for Another Location

Airport:

Trip Planner

Search our weather history database for the weather conditions in past years. The results will help you decide how hot, cold, wet, or windy it might be!

Date:

Astronomy

Jun. 14, 2013 Rise Set
Actual Time 5:46 AM CDT 7:52 PM CDT
Civil Twilight 5:18 AM CDT 8:19 PM CDT
Nautical Twilight 4:44 AM CDT 8:53 PM CDT
Astronomical Twilight 4:08 AM CDT 9:29 PM CDT
Moon 11:01 AM CDT (6/14) 11:50 PM CDT (6/14)
Length of Visible Light 15h 01m
Length of Day
14h 06m
Waxing Crescent, 30% of the Moon is Illuminated
Jun 14
Waxing Crescent
Jun 16
First Quarter
Jun 23
Full
Jun 29
Last Quarter
Jul 8
New

Hourly Weather History & Observations

Time (CDT) Temp. Heat Index Dew Point Humidity Pressure Visibility Wind Dir Wind Speed Gust Speed Precip Events Conditions
12:53 AM 82.0 °F 88.6 °F 75.0 °F 79% 29.90 in 10.0 mi WSW 9.2 mph - N/A   Clear
1:53 AM 82.9 °F 90.8 °F 75.9 °F 79% 29.87 in 10.0 mi WSW 10.4 mph - N/A   Clear
2:53 AM 82.9 °F 91.8 °F 77.0 °F 82% 29.88 in 10.0 mi WSW 6.9 mph - N/A   Partly Cloudy
3:53 AM 82.0 °F 90.2 °F 77.0 °F 85% 29.86 in 10.0 mi SW 10.4 mph - N/A   Clear
4:53 AM 82.9 °F 91.8 °F 77.0 °F 82% 29.87 in 10.0 mi West 9.2 mph - N/A   Clear
5:53 AM 81.0 °F 85.8 °F 73.0 °F 77% 29.86 in 10.0 mi West 9.2 mph - N/A   Partly Cloudy
6:53 AM 80.1 °F 83.8 °F 72.0 °F 76% 29.88 in 10.0 mi NW 9.2 mph - N/A   Clear
7:53 AM 81.0 °F 85.2 °F 72.0 °F 74% 29.89 in 10.0 mi NW 12.7 mph - N/A   Clear
8:53 AM 84.0 °F 91.2 °F 73.9 °F 72% 29.89 in 10.0 mi NW 10.4 mph - N/A   Clear
9:23 AM 84.2 °F 90.9 °F 73.4 °F 70% 29.89 in 9.0 mi NNW 9.2 mph - N/A   Mostly Cloudy
9:53 AM 86.0 °F 93.8 °F 73.9 °F 67% 29.90 in 10.0 mi NNW 11.5 mph - N/A   Overcast
10:53 AM 87.1 °F 95.4 °F 73.9 °F 65% 29.90 in 10.0 mi NNW 10.4 mph - N/A   Mostly Cloudy
11:53 AM 89.1 °F 98.0 °F 73.9 °F 61% 29.90 in 10.0 mi North 12.7 mph 18.4 mph N/A   Mostly Cloudy
12:53 PM 91.0 °F 98.2 °F 72.0 °F 53% 29.90 in 10.0 mi North 12.7 mph - N/A   Scattered Clouds
1:53 PM 91.0 °F 96.6 °F 70.0 °F 50% 29.88 in 10.0 mi Variable 6.9 mph - N/A   Mostly Cloudy
2:53 PM 91.0 °F 95.6 °F 69.1 °F 48% 29.88 in 10.0 mi North 5.8 mph - N/A   Mostly Cloudy
3:53 PM 93.0 °F 97.9 °F 69.1 °F 45% 29.87 in 10.0 mi NW 9.2 mph - N/A   Scattered Clouds
4:53 PM 93.9 °F 98.6 °F 68.0 °F 43% 29.86 in 10.0 mi Variable 5.8 mph - N/A   Partly Cloudy
5:53 PM 89.1 °F 93.7 °F 69.1 °F 52% 29.86 in 10.0 mi Calm Calm - N/A   Clear
6:53 PM 90.0 °F 93.6 °F 68.0 °F 48% 29.87 in 10.0 mi NNE 3.5 mph - N/A   Mostly Cloudy
7:53 PM 87.1 °F 90.6 °F 68.0 °F 53% 29.88 in 10.0 mi North 4.6 mph - N/A   Partly Cloudy
8:53 PM 84.0 °F 87.8 °F 69.1 °F 61% 29.90 in 10.0 mi North 3.5 mph - N/A   Scattered Clouds
9:53 PM 82.9 °F 85.4 °F 66.9 °F 58% 29.92 in 10.0 mi NNE 5.8 mph - N/A   Partly Cloudy
10:53 PM 82.9 °F 84.6 °F 64.9 °F 54% 29.94 in 10.0 mi NE 4.6 mph - N/A   Clear
11:53 PM 80.1 °F 82.3 °F 66.9 °F 64% 29.96 in 10.0 mi North 4.6 mph - N/A   Partly Cloudy